Starlink 30978

operational
NORAD ID: 58490 Int'l Des: 2023-186 Owner: SPXS Country: US Constellation: starlink
LEOCIRCULAR

Über Starlink 30978

Beschreibung wird geladen...

Live-Position

3D-Globus wird geladen...

Nächste Überflüge

Höhenverlauf

Altitude vs Time

uPlot chart will show altitude changes over time

Zweizeiliger Elementsatz

1 58490U 23186T 25350.79387421 .00001153 00000-0 10041-3 0 9991
2 58490 43.0024 157.7245 0001288 271.4434 88.6261 15.02526127113373
Epoch: 16. Dez. 2025 • Age: 14 hours

Aktueller Status

Höhe 568.4 km
Geschwindigkeit 7.58 km/s
Subsatellitenpunkt -35.22°S, 117.92°W
Startdatum 3. Dez. 2023
Alter 2 years
Typ internet

Technische Details

Klassifizierung Payload
Masse 730.00 kg
Trockenmasse 700.00 kg
Gesamtmasse 730.00 kg
Länge 0.30 m
Durchmesser 4.10 m
Spannweite 29.00 m
Form Box + pan
Hersteller SPXS
Bus-Typ Starlink V2M
Phasenstatus In Orbit
Besitzer/Staat SPXS/US

Große Konstellationen

Loading constellations...